Port Isabel, TX

6:19 AM CST on December 11, 2017 (GMT -0600)
Port Isabel-Cameron County

Weather History for KPIL - September, 2013

Change the Weather History Date:

Monday, September 16, 2013

  Actual Average (KBRO) Record (KBRO)
Temperature  
Mean Temperature 80 °F -  
Max Temperature 86 °F 89 °F 99 °F (1893)
Min Temperature 75 °F 71 °F 58 °F (1881)
Cooling Degree Days 14    
Growing Degree Days 30 (Base 50)    
Moisture  
Dew Point 76 °F    
Average Humidity 94    
Maximum Humidity 100    
Minimum Humidity 74    
Precipitation  
Precipitation 1.41 in - - ()
Sea Level Pressure  
Sea Level Pressure 29.87 in    
Wind  
Wind Speed 13 mph (ESE)    
Max Wind Speed 25 mph    
Max Gust Speed 36 mph    
Visibility 5 miles    
Events Rain    
Averages and records for this station are not official NWS values.
T = Trace of Precipitation, MM = Missing Value Source: NWS Daily Summary

Daily Weather History Graph

Daily Weather History Graph

Search for Another Location

Airport or City:

Trip Planner

Search our weather history database for the weather conditions in past years. The results will help you decide how hot, cold, wet, or windy it might be!

Date:

Astronomy

Sep. 16, 2013 Rise Set
Actual Time 7:15 AM CDT 7:32 PM CDT
Civil Twilight 6:52 AM CDT 7:55 PM CDT
Nautical Twilight 6:25 AM CDT 8:22 PM CDT
Astronomical Twilight 5:58 AM CDT 8:49 PM CDT
Moon 5:31 PM CDT (9/16) 4:17 AM CDT (9/16)
Length of Visible Light 13h 02m
Length of Day
12h 16m
Waxing Gibbous, 90% of the Moon is Illuminated
Sep 16
Waxing Gibbous
Sep 19
Full
Sep 26
Last Quarter
Oct 4
New
Oct 11
First Quarter

Hourly Weather History & Observations

Time (CDT) Temp. Heat Index Dew Point Humidity Pressure Visibility Wind Dir Wind Speed Gust Speed Precip Events Conditions
12:53 AM 81.0 °F 86.7 °F 75.0 °F 82% 29.86 in 9.0 mi East 17.3 mph 23.0 mph 0.00 in   Mostly Cloudy
1:42 AM 77.0 °F - 75.2 °F 94% 29.86 in 1.8 mi ESE 18.4 mph 31.1 mph 0.18 in Rain Heavy Rain
1:50 AM 77.0 °F - 75.2 °F 94% 29.85 in 2.0 mi East 9.2 mph 26.5 mph 0.26 in Rain Light Rain
1:51 AM 77.0 °F - 75.2 °F 94% 29.85 in 2.0 mi East 9.2 mph 24.2 mph 0.26 in Rain Light Rain
1:53 AM 77.0 °F - 77.0 °F 100% 29.85 in 4.0 mi East 9.2 mph 19.6 mph 0.26 in Rain Light Rain
2:53 AM 78.1 °F - 78.1 °F 100% 29.84 in 8.0 mi East 9.2 mph - 0.00 in Rain Light Rain
3:53 AM 79.0 °F - 78.1 °F 97% 29.83 in 9.0 mi East 10.4 mph - 0.00 in   Mostly Cloudy
4:53 AM 79.0 °F - 75.9 °F 90% 29.82 in 9.0 mi East 10.4 mph - N/A   Scattered Clouds
5:41 AM 78.8 °F - 77.0 °F 94% 29.83 in 6.0 mi SE 13.8 mph 19.6 mph 0.02 in Rain Light Rain
5:53 AM 77.0 °F - 75.0 °F 94% 29.83 in 7.0 mi SE 8.1 mph - 0.02 in Rain Light Rain
6:09 AM 75.2 °F - 75.2 °F 100% 29.84 in 1.8 mi SE 12.7 mph - 0.19 in Rain Heavy Rain
6:20 AM 75.2 °F - 75.2 °F 100% 29.84 in 3.0 mi SE 10.4 mph - 0.24 in Rain Light Rain
6:28 AM 75.2 °F - 75.2 °F 100% 29.84 in 2.5 mi SE 13.8 mph 20.7 mph 0.33 in Rain Heavy Rain
6:44 AM 75.2 °F - 75.2 °F 100% 29.85 in 3.0 mi ESE 10.4 mph 27.6 mph 0.44 in Rain Heavy Rain
6:53 AM 75.9 °F - 75.9 °F 100% 29.85 in 6.0 mi East 10.4 mph - 0.44 in Rain Light Rain
7:29 AM 77.0 °F - 77.0 °F 100% 29.86 in 5.0 mi SSE 4.6 mph - 0.01 in Rain Light Rain
7:53 AM 77.0 °F - 77.0 °F 100% 29.86 in 4.0 mi Variable 3.5 mph - 0.02 in Rain Light Rain
7:56 AM 77.0 °F - 77.0 °F 100% 29.88 in 2.5 mi SSE 12.7 mph 17.3 mph 0.04 in Rain Rain
7:58 AM 77.0 °F - 77.0 °F 100% 29.88 in 1.8 mi SSE 18.4 mph 21.9 mph 0.05 in Rain Rain
8:06 AM 75.2 °F - 75.2 °F 100% 29.88 in 1.8 mi SSE 17.3 mph 27.6 mph 0.07 in Rain Heavy Rain
8:15 AM 75.2 °F - 75.2 °F 100% 29.87 in 2.0 mi SSE 13.8 mph 24.2 mph 0.11 in Rain Rain
8:25 AM 77.0 °F - 77.0 °F 100% 29.88 in 8.0 mi SSE 10.4 mph - 0.11 in   Overcast
8:36 AM 77.0 °F - 77.0 °F 100% 29.89 in 2.0 mi SE 16.1 mph 24.2 mph 0.15 in Rain Heavy Rain
8:40 AM 75.2 °F - 75.2 °F 100% 29.89 in 1.8 mi SE 17.3 mph 24.2 mph 0.16 in Rain Rain
8:43 AM 75.2 °F - 75.2 °F 100% 29.89 in 3.0 mi SE 13.8 mph 24.2 mph 0.16 in Rain Light Rain
8:53 AM 75.9 °F - 75.9 °F 100% 29.89 in 2.0 mi SE 9.2 mph - 0.20 in Rain Heavy Rain
9:04 AM 75.2 °F - 75.2 °F 100% 29.89 in 2.5 mi SE 11.5 mph - 0.02 in Rain Rain
9:14 AM 75.2 °F - 75.2 °F 100% 29.89 in 6.0 mi ESE 10.4 mph - 0.02 in Rain Light Rain
9:53 AM 79.0 °F - 78.1 °F 97% 29.89 in 7.0 mi ESE 15.0 mph - 0.02 in   Mostly Cloudy
10:53 AM 82.0 °F 92.8 °F 80.1 °F 94% 29.90 in 7.0 mi East 9.2 mph - N/A   Clear
11:53 AM 84.0 °F 92.6 °F 75.9 °F 76% 29.91 in 8.0 mi ESE 15.0 mph - N/A   Mostly Cloudy
12:53 PM 82.9 °F 90.8 °F 75.9 °F 79% 29.89 in 8.0 mi ESE 13.8 mph - N/A   Overcast
1:53 PM 82.0 °F 91.0 °F 78.1 °F 88% 29.88 in 7.0 mi East 16.1 mph 23.0 mph 0.00 in Rain Light Rain
2:53 PM 82.9 °F 92.8 °F 78.1 °F 85% 29.86 in 7.0 mi East 17.3 mph - 0.00 in   Partly Cloudy
3:53 PM 84.9 °F 94.1 °F 75.9 °F 74% 29.84 in 8.0 mi ESE 23.0 mph 28.8 mph N/A   Scattered Clouds
4:53 PM 84.0 °F 93.7 °F 77.0 °F 79% 29.84 in 8.0 mi East 18.4 mph 25.3 mph N/A   Partly Cloudy
5:53 PM 80.1 °F 85.4 °F 75.9 °F 87% 29.85 in 3.0 mi ESE 20.7 mph 31.1 mph 0.03 in Rain Heavy Rain
5:56 PM 78.8 °F - 75.2 °F 89% 29.85 in 1.8 mi East 25.3 mph 35.7 mph 0.04 in Rain Heavy Rain
6:09 PM 75.2 °F - 75.2 °F 100% 29.85 in 4.0 mi East 9.2 mph - 0.11 in Rain Light Rain
6:18 PM 77.0 °F - 75.2 °F 94% 29.85 in 7.0 mi East 8.1 mph - 0.11 in   Partly Cloudy
6:47 PM 75.2 °F - 75.2 °F 100% 29.86 in 1.8 mi SE 19.6 mph 34.5 mph 0.19 in Rain Heavy Rain
6:53 PM 77.0 °F - 75.9 °F 96% 29.85 in 2.0 mi ESE 15.0 mph 28.8 mph 0.20 in Rain Light Rain
7:01 PM 77.0 °F - 75.2 °F 94% 29.86 in 5.0 mi ESE 10.4 mph - 0.00 in Rain Light Rain
7:22 PM 78.8 °F - 78.8 °F 100% 29.86 in 1.8 mi ESE 17.3 mph 26.5 mph 0.18 in Rain Heavy Rain
7:28 PM 78.8 °F - 78.8 °F 100% 29.86 in 2.0 mi East 12.7 mph 23.0 mph 0.22 in Rain Rain
7:31 PM 78.8 °F - 78.8 °F 100% 29.87 in 3.0 mi East 10.4 mph 23.0 mph 0.22 in Rain Light Rain
7:53 PM 80.1 °F 86.4 °F 78.1 °F 94% 29.87 in 8.0 mi ESE 9.2 mph - 0.22 in   Scattered Clouds
8:53 PM 81.0 °F 88.6 °F 78.1 °F 91% 29.88 in 8.0 mi East 17.3 mph 21.9 mph N/A   Partly Cloudy
9:53 PM 81.0 °F 87.3 °F 75.9 °F 85% 29.90 in 8.0 mi East 12.7 mph 19.6 mph N/A   Clear
10:53 PM 82.0 °F 89.4 °F 75.9 °F 82% 29.92 in 8.0 mi East 16.1 mph 25.3 mph N/A   Partly Cloudy
11:53 PM 82.0 °F 89.4 °F 75.9 °F 82% 29.92 in 8.0 mi East 13.8 mph - N/A   Scattered Clouds